Angel Fire, NM

4:09 AM MST on December 12, 2019 (GMT -0700)
Angel Fire

Weather History for KAXX - October, 2019

Change the Weather History Date:

Saturday, October 26, 2019

  Actual Average (WUND) Record (WUND)
Temperature  
Mean Temperature 34 °F -  
Max Temperature 57 °F - - (-1)
Min Temperature 10 °F - - (-1)
Degree Days  
Heating Degree Days 32    
Moisture  
Dew Point 16 °F    
Average Humidity 55    
Maximum Humidity 93    
Minimum Humidity 18    
Precipitation  
Precipitation 0.00 in - - ()
Sea Level Pressure  
Sea Level Pressure 30.07 in    
Wind  
Wind Speed 3 mph (WSW)    
Max Wind Speed 16 mph    
Max Gust Speed 22 mph    
Visibility 10 miles    
Events      
Averages and records for this station are not official NWS values.
T = Trace of Precipitation, MM = Missing Value Source: NWS Daily Summary

Daily Weather History Graph

Daily Weather History Graph

Search for Another Location

Airport or City:

Astronomy

Oct. 26, 2019 Rise Set
Actual Time 7:18 AM MDT 6:11 PM MDT
Civil Twilight 6:51 AM MDT 6:37 PM MDT
Nautical Twilight 6:21 AM MDT 7:07 PM MDT
Astronomical Twilight 5:51 AM MDT 7:37 PM MDT
Moon 5:22 AM MDT (10/26) 5:44 PM MDT (10/26)
Length of Visible Light 11h 45m
Length of Day
10h 53m
Waning Crescent, 3% of the Moon is Illuminated
Oct 26
Waning Crescent
Oct 27
New
Nov 4
First Quarter
Nov 12
Full
Nov 19
Last Quarter

Hourly Weather History & Observations

Time (MDT) Temp. Windchill Dew Point Humidity Pressure Visibility Wind Dir Wind Speed Gust Speed Precip Events Conditions
12:15 AM 19.2 °F - 16.7 °F 90% 30.25 in 10.0 mi Calm Calm - N/A   Clear
12:55 AM 15.4 °F 9.8 °F 13.1 °F 90% 30.25 in 10.0 mi West 3.5 mph - N/A   Clear
1:35 AM 16.5 °F - 14.4 °F 91% 30.24 in 10.0 mi Calm Calm - N/A   Clear
1:55 AM 16.2 °F - 13.8 °F 90% 30.23 in 10.0 mi Calm Calm - N/A   Clear
2:15 AM 14.2 °F - 12.0 °F 91% 30.23 in 10.0 mi Calm Calm - N/A   Clear
2:35 AM 14.5 °F 8.8 °F 12.2 °F 90% 30.22 in 10.0 mi West 3.5 mph - N/A   Clear
2:55 AM 16.2 °F - 14.2 °F 92% 30.21 in 10.0 mi Calm Calm - N/A   Clear
3:15 AM 14.9 °F - 12.9 °F 92% 30.20 in 10.0 mi Calm Calm - N/A   Clear
3:35 AM 15.3 °F - 12.6 °F 89% 30.19 in 10.0 mi Calm Calm - N/A   Clear
3:55 AM 14.2 °F - 11.5 °F 89% 30.18 in 10.0 mi Calm Calm - N/A   Clear
4:15 AM 13.6 °F - 11.3 °F 90% 30.17 in 10.0 mi Calm Calm - N/A   Clear
4:35 AM 14.5 °F - 11.8 °F 89% 30.17 in 10.0 mi Calm Calm - N/A   Clear
4:55 AM 13.1 °F - 10.9 °F 91% 30.17 in 10.0 mi Calm Calm - N/A   Clear
5:15 AM 12.9 °F - 10.6 °F 90% 30.16 in 10.0 mi Calm Calm - N/A   Clear
5:35 AM 13.5 °F - 11.8 °F 93% 30.16 in 10.0 mi Calm Calm - N/A   Clear
5:55 AM 11.8 °F 5.7 °F 9.3 °F 90% 30.15 in 10.0 mi South 3.5 mph - N/A   Clear
6:15 AM 12.6 °F - 9.9 °F 89% 30.15 in 10.0 mi Calm Calm - N/A   Clear
6:35 AM 10.6 °F - 7.9 °F 89% 30.14 in 10.0 mi Calm Calm - N/A   Clear
6:55 AM 12.7 °F - 10.2 °F 90% 30.13 in 10.0 mi Calm Calm - N/A   Clear
7:15 AM 13.1 °F - 10.4 °F 89% 30.13 in 10.0 mi Calm Calm - N/A   Clear
7:35 AM 11.3 °F - 8.2 °F 87% 30.13 in 10.0 mi Calm Calm - N/A   Clear
7:55 AM 11.1 °F - 8.6 °F 90% 30.13 in 10.0 mi Calm Calm - N/A   Clear
8:15 AM 16.9 °F - 14.7 °F 91% 30.12 in 10.0 mi Calm Calm - N/A   Clear
8:35 AM 21.0 °F - 18.7 °F 91% 30.13 in 10.0 mi Calm Calm - N/A   Clear
8:55 AM 25.0 °F - 21.2 °F 86% 30.13 in 10.0 mi Calm Calm - N/A   Clear
9:15 AM 28.2 °F - 23.7 °F 83% 30.13 in 10.0 mi Calm Calm - N/A   Clear
9:35 AM 31.6 °F - 26.4 °F 81% 30.12 in 10.0 mi Calm Calm - N/A   Clear
9:55 AM 37.2 °F 34.7 °F 23.5 °F 58% 30.11 in 10.0 mi WNW 3.5 mph - N/A   Clear
10:15 AM 44.4 °F 42.0 °F 15.6 °F 31% 30.11 in 10.0 mi West 4.6 mph - N/A   Clear
10:35 AM 46.6 °F - 16.0 °F 29% 30.10 in 10.0 mi Calm Calm - N/A   Clear
10:55 AM 48.2 °F - 15.6 °F 27% 30.10 in 10.0 mi Calm Calm - N/A   Clear
11:35 AM 51.4 °F - 17.6 °F 26% 30.07 in 10.0 mi West 3.5 mph - N/A   Clear
11:55 AM 52.9 °F - 18.3 °F 26% 30.06 in 10.0 mi ESE 3.5 mph - N/A   Clear
12:15 PM 54.3 °F - 18.1 °F 24% 30.05 in 10.0 mi West 11.5 mph - N/A   Clear
12:35 PM 55.4 °F - 17.6 °F 23% 30.04 in 10.0 mi West 10.4 mph - N/A   Clear
12:55 PM 55.8 °F - 17.6 °F 22% 30.03 in 10.0 mi SW 6.9 mph - N/A   Clear
1:15 PM 56.5 °F - 17.2 °F 22% 30.01 in 10.0 mi WSW 10.4 mph 16.1 mph N/A   Clear
1:35 PM 57.0 °F - 18.1 °F 22% 30.00 in 10.0 mi WSW 10.4 mph - N/A   Clear
1:55 PM 57.4 °F - 18.7 °F 22% 29.99 in 10.0 mi WSW 15.0 mph 19.6 mph N/A   Clear
2:15 PM 57.2 °F - 18.0 °F 22% 29.99 in 10.0 mi West 16.1 mph - N/A   Clear
2:35 PM 57.6 °F - 16.9 °F 20% 29.99 in 10.0 mi West 15.0 mph - N/A   Clear
2:55 PM 57.7 °F - 16.5 °F 20% 29.99 in 10.0 mi West 13.8 mph - N/A   Clear
3:15 PM 57.9 °F - 16.5 °F 20% 29.99 in 10.0 mi West 13.8 mph 21.9 mph N/A   Clear
3:35 PM 57.2 °F - 17.1 °F 21% 29.99 in 10.0 mi West 9.2 mph 12.7 mph N/A   Clear
3:55 PM 56.8 °F - 15.6 °F 20% 29.99 in 10.0 mi West 9.2 mph 13.8 mph N/A   Clear
4:15 PM 56.5 °F - 13.1 °F 18% 29.99 in 10.0 mi West 10.4 mph - N/A   Clear
4:35 PM 55.8 °F - 14.0 °F 19% 29.99 in 10.0 mi West 5.8 mph - N/A   Clear
4:55 PM 55.4 °F - 14.5 °F 20% 29.99 in 10.0 mi West 4.6 mph 10.4 mph N/A   Clear
5:15 PM 54.5 °F - 15.1 °F 21% 29.98 in 10.0 mi West 3.5 mph - N/A   Clear
5:35 PM 53.6 °F - 15.8 °F 22% 29.97 in 10.0 mi WSW 4.6 mph - N/A   Clear
5:55 PM 51.6 °F - 15.8 °F 24% 29.97 in 10.0 mi Calm Calm - N/A   Clear
6:15 PM 49.3 °F - 15.3 °F 26% 29.97 in 10.0 mi West 3.5 mph - N/A   Clear
6:35 PM 45.0 °F 42.6 °F 16.9 °F 32% 29.97 in 10.0 mi SSE 4.6 mph - N/A   Clear
6:55 PM 45.5 °F - 16.7 °F 32% 29.97 in 10.0 mi Calm Calm - N/A   Clear
7:15 PM 43.0 °F - 18.3 °F 37% 29.99 in 10.0 mi Calm Calm - N/A   Clear
7:35 PM 45.3 °F 43.0 °F 16.7 °F 32% 29.98 in 10.0 mi NE 4.6 mph - N/A   Clear
7:55 PM 47.5 °F - 16.0 °F 28% 29.99 in 10.0 mi NNE 3.5 mph - N/A   Clear
8:15 PM 45.7 °F 43.4 °F 16.2 °F 31% 29.98 in 10.0 mi NE 4.6 mph - N/A   Clear
8:35 PM 45.7 °F 43.4 °F 16.5 °F 31% 29.98 in 10.0 mi East 4.6 mph - N/A   Clear
8:55 PM 42.4 °F 37.5 °F 18.3 °F 38% 29.98 in 10.0 mi East 8.1 mph - N/A   Clear
9:15 PM 41.0 °F 37.1 °F 18.7 °F 41% 29.99 in 10.0 mi South 5.8 mph - N/A   Clear
9:35 PM 36.9 °F - 19.0 °F 49% 29.98 in 10.0 mi Calm Calm - N/A   Clear
9:55 PM 32.4 °F 29.1 °F 20.3 °F 61% 29.98 in 10.0 mi ESE 3.5 mph - N/A   Clear
10:15 PM 35.6 °F 31.7 °F 19.9 °F 53% 29.98 in 10.0 mi ESE 4.6 mph - N/A   Clear
10:35 PM 36.9 °F - 18.3 °F 47% 29.98 in 10.0 mi Calm Calm - N/A   Clear
10:55 PM 34.2 °F 31.2 °F 19.4 °F 55% 29.98 in 10.0 mi West 3.5 mph - N/A   Clear
11:15 PM 30.9 °F - 19.6 °F 63% 29.98 in 10.0 mi Calm Calm - N/A   Clear
11:35 PM 29.3 °F 23.2 °F 21.0 °F 71% 29.97 in 10.0 mi SSE 5.8 mph - N/A   Clear
11:55 PM 27.9 °F - 20.5 °F 74% 29.97 in 10.0 mi Calm Calm - N/A   Clear